GEFSSE_prec_meanprecacc_174.txt.gz
Total_Precipitation_Accumulation
1.34 1.24 1.71 1.62 1.42 1.39 1.33 1.32 1.24 1.13 1.03 0.91 0.81 0.72 0.66 0.63 0.63 0.65 0.62 0.53 0.51 0.51 0.47 0.52 0.60 0.52 0.51 0.51 0.52 0.56 0.62 0.65 0.58 0.51 0.53 0.54 0.53 0.61 0.77 0.93 1.09 1.13 0.96
1.04 1.20 1.82 1.78 1.58 1.45 1.36 1.34 1.24 1.04 0.89 0.81 0.73 0.65 0.59 0.58 0.62 0.60 0.53 0.49 0.47 0.45 0.45 0.56 0.62 0.61 0.60 0.64 0.68 0.74 0.78 0.71 0.61 0.57 0.72 0.77 0.70 0.73 0.81 0.95 1.25 1.20 0.91
0.92 1.07 1.48 1.89 1.73 1.49 1.35 1.31 1.24 1.08 0.81 0.70 0.65 0.61 0.54 0.50 0.50 0.50 0.48 0.44 0.45 0.44 0.45 0.53 0.61 0.58 0.60 0.68 0.76 0.78 0.79 0.75 0.66 0.74 1.21 1.76 1.33 0.95 0.86 1.00 1.09 0.99 0.85
0.86 0.98 1.18 1.69 1.62 1.45 1.37 1.25 1.30 1.12 0.84 0.71 0.66 0.61 0.53 0.48 0.51 0.58 0.58 0.49 0.46 0.45 0.42 0.48 0.59 0.55 0.55 0.63 0.66 0.65 0.69 0.72 0.75 1.03 1.63 2.09 1.84 1.29 1.12 1.05 1.01 0.93 0.85
0.83 0.96 1.38 1.71 1.46 1.31 1.23 1.22 1.31 1.18 1.00 0.85 0.73 0.63 0.58 0.53 0.54 0.62 0.57 0.55 0.54 0.50 0.49 0.56 0.61 0.58 0.52 0.50 0.51 0.53 0.65 0.87 1.06 1.17 1.51 1.77 1.89 1.54 1.27 1.09 1.04 1.00 1.01
0.81 0.93 1.20 1.40 1.31 1.23 1.20 1.17 1.18 1.20 1.18 0.97 0.80 0.73 0.72 0.68 0.67 0.69 0.68 0.62 0.62 0.61 0.63 0.63 0.60 0.60 0.56 0.54 0.52 0.57 0.73 0.97 1.14 1.25 1.52 1.66 1.68 1.44 1.20 1.10 1.14 1.24 1.27
0.68 0.79 0.94 1.17 1.12 1.08 1.08 1.11 1.07 1.14 1.20 1.06 0.83 0.82 0.84 0.76 0.76 0.78 0.80 0.70 0.69 0.67 0.68 0.69 0.63 0.61 0.59 0.59 0.59 0.66 0.75 0.82 0.91 1.18 1.51 1.76 1.52 1.30 1.22 1.10 1.13 1.35 1.48
0.76 0.75 0.79 0.98 1.04 1.00 1.02 1.10 1.01 1.03 1.12 1.07 0.95 0.88 0.81 0.80 0.83 0.84 0.80 0.76 0.71 0.71 0.72 0.74 0.73 0.66 0.63 0.63 0.64 0.72 0.77 0.75 0.72 0.90 1.11 1.56 1.73 1.54 1.24 1.07 1.12 1.24 1.41
1.14 1.02 0.82 0.76 0.79 0.85 0.99 1.12 1.08 1.04 1.04 1.00 1.04 0.98 0.94 0.91 0.85 0.80 0.78 0.78 0.78 0.79 0.80 0.76 0.72 0.69 0.67 0.66 0.64 0.70 0.78 0.78 0.79 0.84 0.89 1.36 1.71 1.63 1.25 1.06 1.06 1.31 1.42
1.16 1.10 0.93 0.83 0.80 0.81 0.77 0.94 1.14 1.19 1.13 1.03 1.01 1.00 0.99 0.93 0.84 0.78 0.73 0.74 0.81 0.83 0.88 0.88 0.80 0.77 0.73 0.68 0.67 0.74 0.80 0.72 0.66 0.68 0.85 1.18 1.63 1.67 1.46 1.09 0.93 1.00 1.12
0.95 0.94 0.91 0.90 0.92 0.98 0.98 0.96 1.18 1.26 1.18 0.99 0.89 0.93 0.94 0.79 0.82 0.83 0.72 0.86 0.87 0.93 0.97 0.97 0.91 0.88 0.77 0.69 0.75 0.85 0.73 0.59 0.70 0.69 0.86 1.15 1.49 1.59 1.52 1.22 0.91 0.85 0.93
0.78 0.74 0.71 0.73 0.80 0.91 0.99 1.33 1.53 1.33 1.21 0.95 0.94 0.83 0.89 0.96 1.03 0.86 0.80 0.96 1.00 1.05 1.03 1.02 1.06 0.97 0.79 0.62 0.67 0.74 0.62 0.62 0.66 0.62 0.80 1.17 1.41 1.48 1.40 1.25 1.00 0.88 0.91
0.60 0.54 0.52 0.49 0.51 0.59 0.80 1.14 1.43 1.55 1.52 1.43 1.19 0.96 0.97 0.85 0.74 0.68 0.70 0.80 0.88 0.96 0.93 0.96 0.97 0.82 0.72 0.67 0.61 0.56 0.61 0.62 0.70 0.74 0.93 1.21 1.37 1.47 1.42 1.28 1.10 1.01 1.00
0.58 0.55 0.48 0.46 0.42 0.44 0.53 0.70 0.90 1.04 1.14 1.16 1.01 0.91 0.98 0.87 0.76 0.76 0.76 0.76 0.75 0.85 0.96 0.98 0.94 0.82 0.72 0.62 0.58 0.60 0.64 0.64 0.77 1.00 1.16 1.09 1.22 1.43 1.49 1.39 1.25 1.14 1.10
0.65 0.68 0.60 0.49 0.45 0.44 0.48 0.56 0.63 0.78 0.87 0.90 0.92 0.88 0.91 0.92 0.89 0.86 0.78 0.78 0.71 0.78 0.89 0.96 0.92 0.84 0.80 0.72 0.69 0.75 0.79 0.82 0.85 0.96 1.03 1.01 1.15 1.43 1.64 1.65 1.45 1.26 1.20
0.68 0.69 0.69 0.59 0.55 0.50 0.48 0.51 0.55 0.65 0.74 0.78 0.76 0.76 0.86 0.94 0.94 0.90 0.85 0.87 0.83 0.84 0.96 0.96 0.88 0.93 0.92 0.85 0.72 0.72 0.79 0.85 0.90 0.91 0.93 1.04 1.09 1.16 1.51 1.74 1.75 1.53 1.45
0.66 0.64 0.63 0.64 0.64 0.62 0.60 0.59 0.57 0.64 0.74 0.76 0.73 0.68 0.70 0.78 0.84 0.87 0.87 0.87 0.91 1.00 1.05 1.07 0.92 0.95 0.91 0.83 0.78 0.72 0.71 0.73 0.78 0.84 0.81 0.82 0.89 0.99 1.24 1.60 1.83 1.74 1.62
0.53 0.52 0.55 0.56 0.61 0.68 0.71 0.72 0.73 0.73 0.80 0.77 0.76 0.69 0.64 0.69 0.77 0.90 0.91 0.88 0.91 1.04 1.13 1.16 1.07 1.04 0.98 0.94 0.91 0.84 0.75 0.76 0.74 0.81 0.82 0.75 0.88 0.83 0.98 1.15 1.38 1.57 1.64
0.44 0.44 0.46 0.50 0.52 0.64 0.73 0.76 0.84 0.86 0.87 0.85 0.84 0.74 0.71 0.77 0.84 1.01 1.11 1.12 1.12 1.13 1.13 1.08 1.13 1.13 1.11 1.10 1.02 0.97 0.86 0.79 0.84 0.79 0.81 0.83 0.79 0.83 0.92 0.79 0.86 1.00 1.30
0.34 0.36 0.40 0.45 0.48 0.55 0.70 0.82 0.97 1.09 1.05 1.07 1.01 0.89 0.91 1.05 1.19 1.32 1.33 1.40 1.47 1.36 1.32 1.25 1.26 1.22 1.16 1.19 1.08 0.97 0.89 0.80 0.89 0.93 0.91 0.91 0.87 0.81 0.90 0.84 0.78 0.71 0.86
0.23 0.26 0.32 0.36 0.44 0.53 0.61 0.75 0.96 1.24 1.35 1.44 1.40 1.22 1.16 1.28 1.52 1.73 1.69 1.74 1.78 1.66 1.63 1.66 1.86 1.81 1.54 1.30 1.33 1.16 0.98 0.83 0.94 0.99 0.96 0.98 0.99 1.05 1.10 0.99 0.86 0.82 0.70
0.17 0.18 0.24 0.32 0.42 0.51 0.60 0.77 0.94 1.08 1.08 1.26 1.41 1.39 1.30 1.29 1.44 1.58 1.83 1.93 1.86 1.88 2.01 2.02 2.35 2.50 2.06 1.63 1.62 1.74 1.47 1.26 1.00 0.86 0.92 0.94 1.03 1.22 1.23 1.03 0.93 0.85 0.78
0.12 0.13 0.17 0.24 0.35 0.48 0.64 0.87 1.09 1.27 1.36 1.42 1.35 1.43 1.44 1.37 1.41 1.51 1.67 1.82 1.84 1.91 2.01 2.12 2.45 2.91 2.67 2.13 1.89 2.08 1.78 1.58 1.39 1.05 0.90 0.92 1.02 1.23 1.33 1.25 1.16 1.08 0.93
0.11 0.10 0.14 0.23 0.38 0.59 0.80 1.06 1.31 1.51 1.55 1.44 1.48 1.51 1.39 1.34 1.31 1.37 1.51 1.65 1.78 1.80 1.94 2.04 2.15 2.62 2.94 2.62 2.32 1.98 1.65 1.57 1.67 1.49 1.13 1.04 1.08 1.16 1.24 1.19 1.18 1.26 1.17
0.17 0.19 0.26 0.46 0.71 0.96 1.17 1.43 1.72 1.72 1.61 1.51 1.51 1.48 1.42 1.43 1.40 1.39 1.54 1.61 1.63 1.68 1.79 2.12 2.37 2.62 2.81 2.75 2.64 2.46 2.20 1.91 1.57 1.68 1.62 1.35 1.22 1.14 1.17 1.22 1.23 1.26 1.27
0.48 0.62 0.82 1.09 1.27 1.36 1.49 1.64 1.76 1.73 1.74 1.68 1.50 1.40 1.40 1.44 1.49 1.54 1.60 1.60 1.58 1.61 1.72 1.94 2.22 2.43 2.74 2.90 2.79 2.57 2.42 2.29 2.07 1.91 1.69 1.58 1.52 1.30 1.24 1.25 1.20 1.24 1.33

GEFSSE_prec_meanprecacc_180.txt.gz
Total_Precipitation_Accumulation
1.41 1.31 1.80 1.70 1.48 1.44 1.38 1.36 1.28 1.17 1.06 0.94 0.84 0.74 0.68 0.65 0.64 0.66 0.63 0.54 0.52 0.52 0.49 0.55 0.62 0.54 0.54 0.53 0.53 0.58 0.64 0.67 0.62 0.54 0.56 0.57 0.56 0.66 0.83 0.97 1.13 1.17 1.01
1.08 1.25 1.90 1.84 1.62 1.50 1.41 1.37 1.28 1.08 0.91 0.83 0.75 0.67 0.61 0.60 0.63 0.60 0.54 0.51 0.49 0.46 0.47 0.58 0.65 0.63 0.63 0.67 0.71 0.76 0.80 0.75 0.66 0.62 0.76 0.80 0.72 0.76 0.85 0.99 1.30 1.24 0.95
0.96 1.11 1.53 1.94 1.78 1.54 1.41 1.34 1.27 1.11 0.83 0.72 0.67 0.63 0.56 0.51 0.51 0.51 0.49 0.45 0.47 0.46 0.47 0.55 0.63 0.61 0.64 0.70 0.79 0.79 0.81 0.79 0.71 0.80 1.26 1.78 1.35 1.01 0.90 1.02 1.13 1.02 0.88
0.89 1.01 1.24 1.76 1.68 1.51 1.42 1.28 1.34 1.15 0.86 0.73 0.69 0.63 0.54 0.49 0.52 0.59 0.59 0.51 0.48 0.47 0.45 0.50 0.61 0.58 0.57 0.64 0.68 0.66 0.70 0.76 0.83 1.09 1.67 2.11 1.87 1.35 1.17 1.08 1.03 0.96 0.87
0.86 1.00 1.45 1.80 1.52 1.36 1.26 1.25 1.35 1.21 1.01 0.87 0.75 0.65 0.58 0.54 0.55 0.63 0.59 0.57 0.55 0.52 0.52 0.57 0.63 0.60 0.53 0.51 0.53 0.55 0.68 0.92 1.13 1.21 1.53 1.79 1.92 1.59 1.30 1.12 1.07 1.02 1.02
0.84 0.98 1.29 1.48 1.37 1.27 1.23 1.20 1.20 1.21 1.19 0.99 0.81 0.73 0.72 0.69 0.68 0.71 0.70 0.63 0.63 0.63 0.65 0.64 0.62 0.61 0.57 0.56 0.54 0.60 0.77 1.02 1.17 1.27 1.53 1.70 1.72 1.48 1.23 1.13 1.17 1.26 1.29
0.72 0.84 1.03 1.24 1.18 1.13 1.12 1.14 1.09 1.14 1.21 1.07 0.83 0.82 0.86 0.77 0.77 0.79 0.80 0.70 0.69 0.67 0.68 0.70 0.64 0.63 0.61 0.61 0.62 0.70 0.80 0.88 0.94 1.19 1.53 1.77 1.55 1.33 1.25 1.13 1.15 1.37 1.50
0.82 0.80 0.85 1.03 1.08 1.03 1.04 1.11 1.02 1.03 1.12 1.07 0.96 0.90 0.82 0.81 0.83 0.85 0.80 0.76 0.72 0.72 0.73 0.74 0.73 0.68 0.65 0.65 0.67 0.77 0.84 0.80 0.74 0.91 1.12 1.58 1.78 1.60 1.28 1.10 1.15 1.27 1.44
1.19 1.07 0.85 0.77 0.80 0.85 1.00 1.12 1.09 1.04 1.04 1.00 1.04 0.98 0.94 0.91 0.86 0.80 0.79 0.79 0.78 0.79 0.81 0.77 0.73 0.70 0.69 0.68 0.67 0.74 0.82 0.82 0.81 0.86 0.90 1.39 1.77 1.68 1.31 1.10 1.10 1.33 1.45
1.18 1.12 0.95 0.83 0.80 0.81 0.77 0.94 1.14 1.19 1.13 1.03 1.01 1.00 0.99 0.93 0.84 0.79 0.73 0.75 0.81 0.84 0.89 0.89 0.81 0.79 0.75 0.71 0.71 0.77 0.84 0.76 0.68 0.70 0.87 1.22 1.71 1.75 1.52 1.13 0.96 1.03 1.14
0.97 0.95 0.92 0.90 0.92 0.98 0.98 0.96 1.18 1.26 1.18 0.99 0.90 0.93 0.94 0.79 0.82 0.83 0.73 0.86 0.88 0.94 0.98 0.98 0.93 0.89 0.79 0.73 0.80 0.90 0.79 0.62 0.71 0.71 0.89 1.21 1.57 1.68 1.59 1.27 0.94 0.88 0.95
0.80 0.75 0.71 0.73 0.80 0.91 0.99 1.33 1.53 1.33 1.21 0.95 0.94 0.83 0.89 0.96 1.03 0.86 0.80 0.97 1.01 1.07 1.05 1.04 1.08 0.99 0.80 0.64 0.72 0.81 0.70 0.67 0.68 0.64 0.86 1.25 1.48 1.56 1.48 1.31 1.06 0.92 0.95
0.62 0.55 0.52 0.49 0.51 0.60 0.80 1.14 1.43 1.55 1.52 1.43 1.19 0.96 0.97 0.85 0.74 0.68 0.70 0.81 0.89 0.98 0.95 0.97 0.99 0.84 0.74 0.69 0.63 0.61 0.72 0.68 0.73 0.77 0.98 1.28 1.42 1.53 1.50 1.34 1.16 1.06 1.05
0.58 0.55 0.48 0.46 0.42 0.44 0.53 0.70 0.90 1.04 1.14 1.16 1.01 0.91 0.98 0.87 0.76 0.76 0.76 0.76 0.76 0.86 0.98 1.00 0.95 0.84 0.74 0.64 0.61 0.65 0.69 0.67 0.80 1.02 1.19 1.14 1.27 1.49 1.57 1.45 1.30 1.20 1.16
0.65 0.68 0.61 0.50 0.45 0.44 0.48 0.56 0.63 0.78 0.87 0.90 0.92 0.88 0.91 0.92 0.89 0.86 0.78 0.78 0.72 0.79 0.90 0.99 0.94 0.85 0.81 0.75 0.71 0.78 0.81 0.86 0.88 0.97 1.06 1.06 1.20 1.49 1.71 1.71 1.51 1.32 1.25
0.69 0.69 0.69 0.59 0.55 0.50 0.48 0.51 0.55 0.65 0.74 0.78 0.76 0.76 0.86 0.94 0.94 0.91 0.86 0.87 0.84 0.86 0.97 0.96 0.89 0.94 0.94 0.87 0.74 0.74 0.81 0.87 0.92 0.92 0.95 1.06 1.13 1.21 1.57 1.80 1.81 1.59 1.51
0.67 0.65 0.64 0.64 0.64 0.62 0.60 0.59 0.57 0.64 0.74 0.76 0.73 0.68 0.70 0.78 0.84 0.87 0.88 0.88 0.92 1.01 1.07 1.08 0.92 0.96 0.93 0.84 0.79 0.73 0.72 0.74 0.79 0.85 0.82 0.82 0.90 1.02 1.29 1.65 1.89 1.80 1.67
0.53 0.52 0.56 0.57 0.61 0.68 0.71 0.72 0.73 0.73 0.80 0.77 0.76 0.69 0.64 0.69 0.77 0.90 0.91 0.89 0.92 1.05 1.14 1.17 1.08 1.05 1.00 0.96 0.92 0.84 0.76 0.78 0.76 0.82 0.83 0.76 0.89 0.84 1.01 1.19 1.42 1.61 1.68
0.45 0.44 0.47 0.51 0.53 0.64 0.73 0.76 0.84 0.86 0.87 0.85 0.84 0.74 0.71 0.77 0.84 1.01 1.11 1.13 1.13 1.14 1.14 1.08 1.14 1.14 1.12 1.11 1.03 0.97 0.88 0.82 0.86 0.80 0.83 0.85 0.80 0.84 0.93 0.81 0.89 1.02 1.34
0.35 0.36 0.40 0.45 0.48 0.55 0.70 0.82 0.97 1.09 1.05 1.07 1.01 0.89 0.91 1.05 1.19 1.33 1.33 1.40 1.47 1.36 1.33 1.26 1.26 1.23 1.16 1.20 1.09 0.98 0.91 0.82 0.90 0.94 0.93 0.93 0.89 0.82 0.91 0.86 0.81 0.73 0.89
0.24 0.27 0.33 0.37 0.44 0.53 0.61 0.75 0.96 1.24 1.35 1.44 1.40 1.22 1.16 1.28 1.52 1.73 1.69 1.74 1.78 1.66 1.63 1.67 1.86 1.82 1.55 1.31 1.34 1.17 0.99 0.83 0.96 1.00 0.98 0.99 1.01 1.07 1.11 1.00 0.86 0.84 0.73
0.17 0.18 0.24 0.32 0.42 0.51 0.60 0.77 0.94 1.08 1.08 1.26 1.41 1.39 1.30 1.29 1.44 1.58 1.83 1.93 1.86 1.89 2.01 2.02 2.35 2.50 2.07 1.64 1.63 1.74 1.48 1.26 1.01 0.89 0.94 0.96 1.06 1.25 1.24 1.05 0.95 0.86 0.80
0.12 0.13 0.18 0.25 0.35 0.48 0.64 0.87 1.09 1.27 1.36 1.42 1.35 1.43 1.44 1.37 1.41 1.51 1.67 1.83 1.84 1.91 2.01 2.13 2.45 2.91 2.68 2.14 1.90 2.09 1.79 1.58 1.39 1.06 0.92 0.94 1.06 1.26 1.37 1.28 1.18 1.10 0.94
0.11 0.10 0.14 0.23 0.38 0.59 0.80 1.06 1.31 1.51 1.55 1.44 1.48 1.51 1.40 1.34 1.31 1.37 1.51 1.66 1.78 1.81 1.94 2.04 2.16 2.62 2.95 2.63 2.34 1.99 1.66 1.58 1.68 1.50 1.16 1.07 1.12 1.20 1.27 1.22 1.19 1.29 1.20
0.18 0.19 0.26 0.46 0.71 0.96 1.18 1.43 1.72 1.72 1.61 1.51 1.51 1.48 1.42 1.43 1.40 1.39 1.54 1.61 1.63 1.69 1.79 2.12 2.38 2.63 2.82 2.76 2.65 2.47 2.21 1.92 1.58 1.70 1.64 1.39 1.25 1.17 1.20 1.24 1.24 1.27 1.28
0.48 0.62 0.82 1.09 1.28 1.36 1.49 1.64 1.76 1.73 1.74 1.68 1.50 1.40 1.40 1.44 1.49 1.54 1.60 1.61 1.58 1.61 1.72 1.94 2.22 2.43 2.74 2.90 2.79 2.57 2.43 2.30 2.08 1.93 1.71 1.60 1.56 1.33 1.26 1.26 1.21 1.24 1.33

GEFSSE_prec_meanprecacc_186.txt.gz
Total_Precipitation_Accumulation
1.45 1.41 1.97 1.85 1.63 1.58 1.46 1.43 1.33 1.24 1.14 0.99 0.87 0.77 0.70 0.67 0.66 0.68 0.64 0.56 0.54 0.53 0.50 0.57 0.66 0.57 0.56 0.57 0.57 0.61 0.68 0.71 0.66 0.57 0.59 0.60 0.61 0.74 0.92 1.03 1.17 1.20 1.06
1.12 1.37 2.07 1.96 1.77 1.64 1.50 1.45 1.33 1.13 0.97 0.87 0.79 0.71 0.64 0.62 0.64 0.62 0.56 0.52 0.51 0.48 0.48 0.59 0.67 0.67 0.67 0.71 0.75 0.80 0.84 0.78 0.72 0.66 0.78 0.82 0.76 0.83 0.94 1.05 1.35 1.28 1.01
1.04 1.20 1.63 2.06 1.92 1.66 1.50 1.40 1.32 1.15 0.89 0.76 0.71 0.67 0.59 0.53 0.53 0.53 0.51 0.47 0.48 0.48 0.48 0.56 0.65 0.64 0.67 0.74 0.83 0.84 0.83 0.82 0.76 0.84 1.30 1.79 1.37 1.06 0.96 1.07 1.18 1.07 0.94
0.97 1.07 1.31 1.88 1.80 1.62 1.50 1.35 1.41 1.21 0.90 0.77 0.73 0.66 0.57 0.51 0.54 0.61 0.61 0.52 0.50 0.50 0.48 0.51 0.62 0.60 0.60 0.68 0.72 0.71 0.75 0.81 0.88 1.14 1.69 2.12 1.88 1.40 1.22 1.13 1.08 1.00 0.91
0.94 1.07 1.57 1.93 1.62 1.44 1.34 1.34 1.42 1.27 1.06 0.91 0.78 0.67 0.61 0.56 0.57 0.66 0.60 0.58 0.57 0.55 0.55 0.59 0.64 0.62 0.56 0.55 0.58 0.63 0.75 0.99 1.19 1.24 1.54 1.81 1.94 1.65 1.34 1.17 1.11 1.06 1.05
0.91 1.06 1.41 1.62 1.48 1.37 1.29 1.26 1.26 1.26 1.24 1.02 0.84 0.76 0.74 0.70 0.69 0.72 0.71 0.64 0.65 0.65 0.66 0.65 0.64 0.64 0.61 0.61 0.60 0.67 0.87 1.11 1.20 1.27 1.54 1.71 1.74 1.54 1.27 1.16 1.22 1.30 1.32
0.76 0.92 1.16 1.42 1.32 1.24 1.18 1.18 1.13 1.18 1.24 1.09 0.85 0.85 0.88 0.80 0.78 0.80 0.81 0.71 0.71 0.69 0.70 0.71 0.67 0.67 0.65 0.65 0.67 0.77 0.90 0.97 0.96 1.20 1.53 1.78 1.57 1.37 1.28 1.17 1.19 1.40 1.53
0.85 0.85 0.95 1.17 1.23 1.13 1.12 1.17 1.04 1.05 1.13 1.08 0.96 0.90 0.84 0.82 0.85 0.86 0.81 0.77 0.74 0.74 0.74 0.76 0.77 0.72 0.68 0.69 0.74 0.85 0.95 0.88 0.76 0.92 1.13 1.60 1.83 1.65 1.31 1.13 1.18 1.31 1.47
1.23 1.11 0.91 0.85 0.92 0.97 1.05 1.15 1.10 1.05 1.05 1.01 1.05 0.99 0.95 0.92 0.87 0.81 0.80 0.80 0.80 0.82 0.82 0.79 0.75 0.74 0.74 0.74 0.74 0.80 0.91 0.90 0.84 0.87 0.91 1.41 1.82 1.74 1.35 1.13 1.13 1.35 1.47
1.24 1.16 0.97 0.85 0.84 0.85 0.80 0.95 1.16 1.20 1.14 1.03 1.01 1.01 0.99 0.94 0.85 0.80 0.74 0.76 0.83 0.86 0.91 0.90 0.82 0.82 0.80 0.76 0.76 0.83 0.89 0.81 0.70 0.71 0.88 1.27 1.80 1.82 1.57 1.16 0.99 1.05 1.15
1.01 0.98 0.93 0.91 0.93 0.99 0.99 0.97 1.19 1.27 1.19 1.00 0.90 0.93 0.94 0.80 0.82 0.84 0.74 0.88 0.90 0.97 1.00 1.00 0.95 0.92 0.85 0.81 0.86 0.95 0.83 0.65 0.73 0.72 0.91 1.30 1.66 1.75 1.64 1.31 0.98 0.91 0.98
0.82 0.76 0.72 0.73 0.80 0.91 0.99 1.33 1.54 1.33 1.21 0.95 0.94 0.83 0.89 0.96 1.03 0.86 0.81 1.00 1.04 1.09 1.07 1.07 1.10 1.00 0.82 0.67 0.77 0.85 0.72 0.69 0.70 0.66 0.90 1.33 1.57 1.65 1.57 1.39 1.12 0.99 1.01
0.63 0.55 0.52 0.49 0.51 0.60 0.80 1.14 1.43 1.55 1.52 1.43 1.19 0.96 0.97 0.85 0.74 0.68 0.70 0.81 0.90 0.98 0.96 0.98 1.00 0.84 0.74 0.69 0.65 0.63 0.74 0.71 0.75 0.79 1.02 1.34 1.50 1.61 1.58 1.42 1.22 1.13 1.13
0.60 0.56 0.49 0.46 0.42 0.44 0.53 0.70 0.90 1.05 1.14 1.16 1.01 0.91 0.98 0.87 0.76 0.76 0.76 0.76 0.77 0.86 0.98 1.01 0.97 0.85 0.75 0.64 0.61 0.66 0.72 0.70 0.83 1.05 1.23 1.21 1.35 1.57 1.65 1.52 1.37 1.25 1.22
0.67 0.70 0.61 0.50 0.45 0.44 0.48 0.56 0.63 0.78 0.87 0.90 0.92 0.88 0.91 0.92 0.89 0.86 0.78 0.78 0.73 0.80 0.91 1.00 0.96 0.86 0.82 0.76 0.72 0.79 0.83 0.89 0.92 1.00 1.09 1.11 1.26 1.56 1.79 1.78 1.58 1.39 1.31
0.71 0.70 0.70 0.60 0.55 0.51 0.48 0.51 0.55 0.65 0.74 0.78 0.76 0.76 0.86 0.94 0.94 0.91 0.86 0.87 0.85 0.87 0.99 0.97 0.90 0.95 0.95 0.88 0.75 0.75 0.83 0.89 0.93 0.93 0.97 1.10 1.17 1.26 1.65 1.88 1.87 1.67 1.57
0.69 0.66 0.65 0.65 0.64 0.63 0.61 0.59 0.57 0.64 0.74 0.76 0.73 0.68 0.70 0.78 0.84 0.87 0.88 0.88 0.93 1.02 1.07 1.08 0.92 0.96 0.94 0.85 0.79 0.74 0.73 0.75 0.80 0.86 0.83 0.83 0.92 1.06 1.36 1.73 1.98 1.88 1.74
0.55 0.54 0.57 0.58 0.62 0.68 0.71 0.72 0.73 0.73 0.80 0.77 0.76 0.69 0.64 0.69 0.77 0.90 0.91 0.89 0.93 1.06 1.14 1.18 1.09 1.06 1.00 0.97 0.93 0.85 0.77 0.80 0.77 0.83 0.84 0.77 0.89 0.86 1.05 1.25 1.51 1.69 1.77
0.46 0.45 0.48 0.52 0.53 0.64 0.73 0.76 0.84 0.86 0.87 0.85 0.84 0.74 0.71 0.77 0.84 1.01 1.11 1.13 1.13 1.15 1.15 1.09 1.14 1.14 1.12 1.12 1.03 0.98 0.90 0.85 0.88 0.81 0.84 0.87 0.81 0.84 0.95 0.85 0.94 1.10 1.43
0.36 0.37 0.42 0.47 0.49 0.56 0.70 0.82 0.97 1.09 1.05 1.07 1.01 0.89 0.91 1.05 1.19 1.33 1.33 1.40 1.48 1.36 1.33 1.26 1.27 1.23 1.17 1.21 1.10 0.99 0.92 0.84 0.92 0.95 0.94 0.95 0.90 0.83 0.92 0.87 0.84 0.77 0.96
0.25 0.28 0.34 0.38 0.46 0.53 0.61 0.75 0.96 1.24 1.35 1.44 1.40 1.22 1.16 1.28 1.52 1.73 1.69 1.74 1.78 1.67 1.63 1.67 1.86 1.82 1.55 1.31 1.34 1.18 0.99 0.85 0.97 1.01 0.99 1.02 1.03 1.09 1.13 1.02 0.88 0.86 0.75
0.17 0.19 0.25 0.33 0.43 0.51 0.60 0.78 0.94 1.08 1.08 1.26 1.41 1.39 1.30 1.29 1.44 1.58 1.83 1.93 1.86 1.89 2.01 2.03 2.36 2.50 2.07 1.64 1.63 1.74 1.48 1.27 1.02 0.89 0.95 0.99 1.09 1.28 1.27 1.06 0.96 0.87 0.81
0.13 0.14 0.18 0.25 0.36 0.49 0.64 0.87 1.09 1.27 1.36 1.42 1.35 1.43 1.44 1.37 1.41 1.51 1.67 1.83 1.84 1.92 2.01 2.13 2.45 2.92 2.68 2.15 1.90 2.09 1.79 1.58 1.40 1.07 0.93 0.96 1.08 1.29 1.42 1.30 1.20 1.10 0.95
0.12 0.11 0.15 0.24 0.39 0.60 0.81 1.06 1.31 1.51 1.55 1.44 1.48 1.51 1.40 1.34 1.31 1.37 1.52 1.66 1.78 1.81 1.94 2.04 2.16 2.62 2.95 2.64 2.34 2.00 1.66 1.58 1.68 1.50 1.17 1.11 1.15 1.22 1.30 1.25 1.23 1.31 1.21
0.19 0.20 0.27 0.47 0.72 0.97 1.19 1.44 1.72 1.72 1.61 1.51 1.51 1.48 1.42 1.44 1.40 1.39 1.54 1.61 1.63 1.69 1.79 2.12 2.38 2.63 2.82 2.76 2.66 2.47 2.21 1.92 1.59 1.71 1.65 1.41 1.29 1.21 1.22 1.26 1.27 1.31 1.32
0.49 0.64 0.83 1.10 1.28 1.37 1.49 1.65 1.76 1.73 1.74 1.68 1.50 1.40 1.40 1.44 1.49 1.54 1.60 1.61 1.58 1.61 1.72 1.95 2.23 2.44 2.74 2.90 2.79 2.58 2.43 2.30 2.08 1.95 1.73 1.61 1.59 1.38 1.29 1.29 1.23 1.26 1.36

GEFSSE_prec_meanprecacc_192.txt.gz
Total_Precipitation_Accumulation
1.49 1.49 2.10 1.99 1.77 1.70 1.58 1.54 1.42 1.31 1.22 1.06 0.94 0.82 0.74 0.70 0.68 0.69 0.66 0.58 0.55 0.54 0.51 0.58 0.68 0.60 0.59 0.61 0.61 0.64 0.71 0.77 0.72 0.61 0.62 0.64 0.66 0.83 0.98 1.07 1.21 1.25 1.12
1.16 1.46 2.21 2.09 1.89 1.76 1.61 1.57 1.42 1.18 1.01 0.92 0.86 0.78 0.68 0.65 0.67 0.64 0.57 0.53 0.52 0.49 0.49 0.60 0.70 0.70 0.69 0.74 0.79 0.84 0.87 0.83 0.77 0.69 0.81 0.86 0.83 0.92 1.02 1.10 1.39 1.36 1.09
1.09 1.29 1.73 2.18 2.01 1.76 1.62 1.50 1.38 1.20 0.92 0.79 0.75 0.74 0.64 0.57 0.56 0.55 0.54 0.48 0.50 0.51 0.50 0.58 0.68 0.66 0.69 0.77 0.87 0.88 0.87 0.85 0.80 0.88 1.33 1.82 1.41 1.12 1.03 1.13 1.24 1.13 1.00
1.02 1.16 1.38 1.97 1.89 1.73 1.62 1.45 1.47 1.24 0.94 0.80 0.77 0.71 0.61 0.56 0.59 0.64 0.63 0.54 0.53 0.53 0.51 0.53 0.64 0.62 0.62 0.70 0.75 0.75 0.81 0.86 0.92 1.17 1.71 2.15 1.93 1.45 1.30 1.21 1.15 1.08 0.98
1.00 1.15 1.66 2.03 1.73 1.58 1.45 1.41 1.47 1.31 1.09 0.94 0.82 0.72 0.66 0.61 0.61 0.69 0.63 0.60 0.59 0.58 0.59 0.61 0.66 0.63 0.58 0.58 0.62 0.67 0.81 1.05 1.22 1.27 1.57 1.84 2.00 1.72 1.41 1.24 1.17 1.12 1.11
0.99 1.13 1.51 1.72 1.57 1.47 1.39 1.32 1.31 1.31 1.29 1.08 0.90 0.83 0.79 0.73 0.71 0.75 0.73 0.66 0.67 0.67 0.69 0.67 0.65 0.65 0.63 0.63 0.65 0.73 0.92 1.16 1.23 1.30 1.59 1.76 1.80 1.61 1.32 1.21 1.26 1.34 1.37
0.83 0.98 1.24 1.49 1.40 1.33 1.30 1.26 1.19 1.25 1.32 1.17 0.91 0.90 0.92 0.83 0.81 0.82 0.83 0.72 0.72 0.71 0.73 0.75 0.69 0.69 0.67 0.68 0.72 0.83 0.97 1.02 1.01 1.24 1.59 1.86 1.64 1.44 1.32 1.21 1.22 1.44 1.58
0.91 0.90 1.01 1.26 1.33 1.23 1.24 1.28 1.13 1.11 1.19 1.12 0.99 0.92 0.86 0.85 0.88 0.88 0.82 0.78 0.76 0.78 0.79 0.80 0.80 0.75 0.70 0.72 0.80 0.93 1.03 0.94 0.81 0.96 1.17 1.67 1.92 1.73 1.38 1.18 1.21 1.33 1.50
1.27 1.14 0.98 0.96 1.08 1.11 1.16 1.24 1.16 1.09 1.08 1.02 1.06 1.00 0.96 0.93 0.88 0.83 0.82 0.82 0.82 0.84 0.85 0.81 0.78 0.76 0.76 0.79 0.81 0.89 0.96 0.94 0.90 0.91 0.94 1.48 1.90 1.82 1.43 1.18 1.16 1.38 1.49
1.31 1.20 1.02 0.92 0.91 0.96 0.89 1.02 1.20 1.23 1.15 1.04 1.02 1.01 1.01 0.95 0.87 0.82 0.75 0.78 0.85 0.88 0.93 0.92 0.84 0.84 0.85 0.82 0.81 0.87 0.92 0.83 0.73 0.73 0.91 1.33 1.88 1.90 1.64 1.22 1.02 1.08 1.18
1.09 1.03 0.96 0.93 0.94 1.01 1.03 1.00 1.21 1.28 1.19 1.00 0.90 0.94 0.94 0.80 0.82 0.84 0.75 0.90 0.93 0.98 1.01 1.01 0.97 0.95 0.90 0.87 0.90 0.98 0.85 0.66 0.75 0.75 0.95 1.37 1.74 1.83 1.72 1.37 1.02 0.95 1.00
0.85 0.78 0.74 0.74 0.80 0.91 1.00 1.34 1.55 1.34 1.22 0.95 0.94 0.83 0.89 0.96 1.03 0.86 0.81 1.02 1.06 1.11 1.09 1.09 1.11 1.01 0.84 0.70 0.80 0.88 0.75 0.71 0.73 0.71 0.97 1.39 1.64 1.73 1.65 1.44 1.17 1.03 1.06
0.65 0.57 0.53 0.49 0.51 0.60 0.80 1.15 1.43 1.55 1.52 1.43 1.19 0.96 0.97 0.85 0.74 0.68 0.70 0.82 0.91 0.99 0.97 1.00 1.01 0.85 0.76 0.72 0.68 0.66 0.77 0.75 0.79 0.83 1.08 1.41 1.59 1.70 1.66 1.48 1.28 1.18 1.17
0.61 0.57 0.49 0.46 0.42 0.44 0.53 0.71 0.91 1.05 1.14 1.16 1.01 0.91 0.98 0.87 0.76 0.76 0.76 0.77 0.77 0.87 1.00 1.03 0.99 0.87 0.76 0.66 0.63 0.68 0.75 0.74 0.87 1.09 1.27 1.26 1.42 1.65 1.73 1.59 1.43 1.30 1.26
0.70 0.71 0.62 0.50 0.46 0.44 0.48 0.56 0.64 0.79 0.87 0.90 0.93 0.88 0.91 0.92 0.89 0.86 0.78 0.78 0.73 0.81 0.93 1.03 0.98 0.88 0.84 0.78 0.74 0.82 0.87 0.94 0.97 1.05 1.14 1.15 1.32 1.63 1.86 1.85 1.65 1.44 1.35
0.72 0.72 0.71 0.60 0.55 0.51 0.48 0.52 0.55 0.65 0.74 0.78 0.76 0.76 0.86 0.95 0.94 0.91 0.86 0.87 0.85 0.88 1.01 1.00 0.91 0.97 0.97 0.90 0.77 0.77 0.85 0.92 0.97 0.97 1.02 1.13 1.21 1.31 1.71 1.96 1.93 1.72 1.62
0.70 0.67 0.66 0.65 0.65 0.63 0.61 0.59 0.57 0.64 0.74 0.76 0.73 0.68 0.70 0.78 0.84 0.87 0.88 0.88 0.93 1.02 1.08 1.10 0.93 0.97 0.95 0.86 0.80 0.74 0.74 0.77 0.83 0.89 0.86 0.86 0.94 1.08 1.39 1.77 2.04 1.95 1.84
0.57 0.55 0.58 0.58 0.62 0.69 0.71 0.72 0.73 0.73 0.80 0.77 0.76 0.69 0.64 0.69 0.77 0.90 0.91 0.90 0.93 1.06 1.15 1.20 1.11 1.08 1.02 0.98 0.94 0.86 0.78 0.82 0.79 0.85 0.86 0.80 0.93 0.89 1.08 1.28 1.56 1.77 1.90
0.47 0.46 0.49 0.52 0.54 0.64 0.73 0.76 0.84 0.86 0.87 0.85 0.84 0.74 0.71 0.77 0.84 1.01 1.12 1.13 1.13 1.15 1.15 1.10 1.16 1.16 1.14 1.15 1.06 1.00 0.92 0.87 0.90 0.83 0.86 0.90 0.85 0.87 0.97 0.89 0.98 1.17 1.51
0.38 0.39 0.42 0.47 0.50 0.56 0.70 0.82 0.97 1.09 1.05 1.07 1.01 0.89 0.91 1.05 1.19 1.33 1.33 1.41 1.48 1.37 1.33 1.28 1.30 1.25 1.19 1.24 1.12 1.02 0.94 0.86 0.94 0.97 0.95 0.97 0.92 0.85 0.94 0.90 0.89 0.83 1.03
0.27 0.30 0.35 0.39 0.47 0.54 0.61 0.75 0.96 1.24 1.35 1.44 1.40 1.22 1.16 1.28 1.52 1.73 1.70 1.75 1.79 1.68 1.64 1.68 1.88 1.84 1.57 1.33 1.37 1.21 1.01 0.86 0.99 1.03 1.01 1.04 1.05 1.11 1.15 1.03 0.92 0.92 0.82
0.19 0.20 0.26 0.34 0.44 0.52 0.60 0.78 0.94 1.08 1.08 1.26 1.41 1.39 1.30 1.29 1.44 1.58 1.83 1.93 1.87 1.91 2.03 2.04 2.38 2.53 2.09 1.66 1.65 1.77 1.50 1.29 1.04 0.91 0.97 1.00 1.10 1.30 1.29 1.07 0.98 0.91 0.85
0.15 0.16 0.19 0.27 0.37 0.50 0.65 0.88 1.09 1.27 1.36 1.42 1.35 1.43 1.44 1.37 1.41 1.51 1.67 1.83 1.84 1.92 2.01 2.14 2.47 2.95 2.71 2.17 1.91 2.11 1.82 1.61 1.42 1.08 0.94 0.98 1.09 1.32 1.46 1.33 1.22 1.14 0.98
0.16 0.15 0.17 0.26 0.40 0.61 0.82 1.06 1.31 1.52 1.55 1.44 1.48 1.51 1.40 1.34 1.31 1.37 1.52 1.66 1.78 1.81 1.94 2.04 2.16 2.64 2.98 2.67 2.37 2.01 1.67 1.60 1.71 1.52 1.19 1.13 1.17 1.24 1.33 1.29 1.27 1.35 1.23
0.22 0.22 0.28 0.48 0.72 0.98 1.20 1.45 1.73 1.72 1.61 1.51 1.51 1.48 1.42 1.44 1.40 1.39 1.54 1.62 1.64 1.69 1.79 2.12 2.38 2.64 2.84 2.79 2.69 2.50 2.23 1.94 1.61 1.73 1.67 1.44 1.32 1.23 1.24 1.28 1.29 1.36 1.38
0.51 0.65 0.84 1.10 1.29 1.37 1.50 1.67 1.78 1.74 1.75 1.68 1.50 1.40 1.40 1.45 1.50 1.54 1.60 1.61 1.59 1.62 1.73 1.95 2.23 2.44 2.75 2.92 2.81 2.59 2.45 2.32 2.10 1.96 1.74 1.63 1.60 1.40 1.31 1.30 1.24 1.28 1.40

GEFSSE_prec_meanprecacc_198.txt.gz
Total_Precipitation_Accumulation
1.57 1.55 2.15 2.05 1.86 1.78 1.65 1.62 1.48 1.37 1.29 1.12 0.99 0.86 0.78 0.74 0.71 0.72 0.68 0.59 0.57 0.57 0.54 0.61 0.72 0.64 0.63 0.64 0.64 0.67 0.75 0.82 0.75 0.65 0.66 0.69 0.74 0.94 1.07 1.17 1.31 1.31 1.17
1.21 1.50 2.26 2.14 1.96 1.82 1.69 1.65 1.49 1.25 1.06 0.95 0.89 0.82 0.73 0.68 0.69 0.66 0.59 0.55 0.54 0.51 0.51 0.63 0.73 0.73 0.73 0.76 0.81 0.86 0.90 0.86 0.80 0.73 0.86 0.92 0.92 1.06 1.11 1.18 1.47 1.44 1.15
1.12 1.33 1.76 2.22 2.06 1.83 1.70 1.62 1.47 1.26 0.97 0.82 0.77 0.77 0.68 0.60 0.60 0.58 0.58 0.52 0.53 0.53 0.52 0.60 0.70 0.69 0.72 0.79 0.88 0.90 0.91 0.89 0.83 0.92 1.40 1.92 1.51 1.23 1.12 1.20 1.31 1.19 1.05
1.06 1.22 1.41 2.00 1.94 1.81 1.71 1.55 1.55 1.30 0.97 0.84 0.79 0.74 0.65 0.59 0.63 0.68 0.67 0.58 0.55 0.55 0.52 0.55 0.66 0.64 0.65 0.73 0.76 0.77 0.84 0.90 0.96 1.24 1.82 2.27 2.05 1.54 1.37 1.26 1.21 1.14 1.04
1.04 1.20 1.70 2.08 1.79 1.65 1.52 1.47 1.53 1.35 1.12 0.97 0.84 0.74 0.68 0.63 0.64 0.71 0.65 0.63 0.62 0.60 0.61 0.63 0.67 0.65 0.60 0.61 0.65 0.70 0.85 1.09 1.27 1.36 1.71 1.98 2.12 1.79 1.46 1.28 1.22 1.16 1.18
1.05 1.20 1.56 1.79 1.63 1.52 1.45 1.38 1.35 1.36 1.33 1.11 0.92 0.85 0.82 0.75 0.74 0.77 0.77 0.69 0.70 0.70 0.73 0.70 0.66 0.67 0.65 0.66 0.68 0.77 0.96 1.21 1.29 1.40 1.71 1.89 1.90 1.67 1.37 1.25 1.30 1.39 1.42
0.90 1.03 1.28 1.55 1.46 1.38 1.35 1.32 1.24 1.29 1.36 1.22 0.95 0.94 0.95 0.87 0.84 0.85 0.86 0.75 0.76 0.76 0.77 0.78 0.71 0.70 0.69 0.71 0.76 0.88 1.02 1.08 1.09 1.36 1.70 1.97 1.72 1.49 1.37 1.25 1.26 1.48 1.63
0.95 0.92 1.04 1.33 1.38 1.27 1.29 1.35 1.20 1.17 1.25 1.18 1.03 0.97 0.89 0.88 0.91 0.91 0.86 0.81 0.79 0.82 0.83 0.84 0.83 0.76 0.72 0.75 0.84 0.99 1.09 1.01 0.87 1.03 1.25 1.74 1.98 1.79 1.43 1.22 1.24 1.35 1.53
1.29 1.16 0.99 1.00 1.12 1.15 1.20 1.30 1.23 1.16 1.15 1.08 1.10 1.05 0.99 0.96 0.90 0.84 0.84 0.85 0.84 0.86 0.87 0.84 0.80 0.78 0.79 0.83 0.85 0.92 1.00 0.99 0.95 0.98 1.01 1.55 1.97 1.88 1.48 1.21 1.18 1.39 1.51
1.34 1.22 1.04 0.95 0.94 1.02 0.96 1.07 1.26 1.29 1.20 1.08 1.05 1.05 1.04 0.99 0.88 0.82 0.76 0.80 0.87 0.90 0.95 0.93 0.86 0.86 0.88 0.85 0.84 0.90 0.96 0.88 0.77 0.79 0.98 1.41 1.95 1.97 1.70 1.26 1.06 1.09 1.20
1.11 1.05 0.98 0.95 0.95 1.03 1.07 1.04 1.25 1.32 1.21 1.02 0.91 0.95 0.97 0.82 0.83 0.84 0.75 0.90 0.93 1.00 1.04 1.03 0.99 0.97 0.92 0.89 0.93 1.01 0.89 0.70 0.79 0.81 1.02 1.45 1.82 1.91 1.80 1.43 1.07 0.98 1.03
0.87 0.80 0.76 0.76 0.82 0.92 1.01 1.36 1.56 1.34 1.22 0.95 0.94 0.84 0.89 0.96 1.03 0.86 0.82 1.02 1.07 1.13 1.10 1.10 1.13 1.02 0.86 0.73 0.83 0.91 0.77 0.73 0.77 0.76 1.02 1.47 1.74 1.80 1.71 1.50 1.22 1.08 1.11
0.66 0.58 0.54 0.51 0.53 0.61 0.81 1.15 1.44 1.55 1.52 1.43 1.19 0.96 0.97 0.85 0.74 0.68 0.70 0.82 0.93 1.03 1.01 1.02 1.04 0.87 0.78 0.74 0.70 0.68 0.79 0.78 0.85 0.88 1.11 1.46 1.67 1.79 1.73 1.54 1.32 1.21 1.21
0.62 0.57 0.50 0.47 0.43 0.44 0.53 0.71 0.91 1.05 1.14 1.16 1.01 0.91 0.98 0.87 0.76 0.77 0.76 0.77 0.79 0.90 1.04 1.06 1.02 0.88 0.77 0.68 0.64 0.70 0.77 0.76 0.92 1.14 1.30 1.30 1.48 1.72 1.79 1.63 1.46 1.33 1.30
0.71 0.72 0.62 0.50 0.46 0.44 0.48 0.56 0.64 0.79 0.87 0.90 0.93 0.88 0.91 0.92 0.89 0.86 0.78 0.79 0.74 0.84 0.97 1.06 1.01 0.90 0.87 0.80 0.74 0.84 0.90 0.97 1.03 1.09 1.18 1.19 1.37 1.68 1.92 1.89 1.69 1.48 1.39
0.74 0.73 0.71 0.60 0.56 0.51 0.48 0.52 0.55 0.65 0.74 0.78 0.76 0.76 0.86 0.95 0.94 0.91 0.86 0.88 0.86 0.90 1.03 1.03 0.93 0.98 1.00 0.92 0.78 0.79 0.88 0.96 1.02 1.04 1.08 1.19 1.25 1.35 1.76 2.02 1.99 1.79 1.73
0.72 0.68 0.66 0.66 0.65 0.64 0.61 0.59 0.57 0.64 0.74 0.76 0.73 0.68 0.70 0.79 0.84 0.87 0.88 0.89 0.94 1.03 1.09 1.12 0.95 0.98 0.96 0.88 0.82 0.77 0.77 0.82 0.89 0.95 0.92 0.90 0.98 1.12 1.43 1.82 2.12 2.05 2.05
0.58 0.55 0.58 0.59 0.63 0.69 0.71 0.72 0.73 0.73 0.80 0.77 0.76 0.69 0.64 0.69 0.77 0.90 0.92 0.91 0.94 1.07 1.17 1.22 1.13 1.10 1.04 0.99 0.96 0.88 0.81 0.87 0.84 0.89 0.89 0.83 0.96 0.92 1.11 1.32 1.60 1.82 2.03
0.48 0.47 0.50 0.53 0.54 0.65 0.73 0.76 0.84 0.86 0.87 0.85 0.84 0.74 0.71 0.77 0.84 1.01 1.13 1.15 1.14 1.16 1.16 1.12 1.18 1.19 1.17 1.17 1.09 1.03 0.94 0.91 0.96 0.87 0.89 0.93 0.87 0.90 0.99 0.90 1.00 1.21 1.60
0.40 0.41 0.44 0.48 0.50 0.57 0.70 0.82 0.97 1.09 1.05 1.07 1.01 0.89 0.91 1.05 1.19 1.33 1.35 1.43 1.49 1.38 1.36 1.31 1.33 1.27 1.20 1.25 1.15 1.05 0.96 0.88 0.98 1.00 0.98 0.99 0.94 0.88 0.98 0.94 0.92 0.87 1.12
0.29 0.32 0.37 0.40 0.47 0.54 0.61 0.75 0.97 1.24 1.35 1.44 1.40 1.22 1.16 1.28 1.52 1.74 1.71 1.77 1.81 1.70 1.68 1.71 1.92 1.87 1.59 1.35 1.40 1.24 1.04 0.89 1.02 1.06 1.04 1.07 1.08 1.14 1.20 1.11 1.00 0.99 0.89
0.21 0.23 0.28 0.35 0.45 0.52 0.60 0.78 0.94 1.08 1.08 1.26 1.41 1.39 1.30 1.29 1.44 1.58 1.84 1.95 1.89 1.93 2.07 2.08 2.43 2.58 2.12 1.68 1.69 1.83 1.56 1.33 1.07 0.93 0.99 1.01 1.12 1.33 1.34 1.13 1.04 0.99 0.91
0.16 0.17 0.21 0.28 0.39 0.51 0.65 0.88 1.09 1.28 1.36 1.42 1.35 1.43 1.44 1.37 1.41 1.51 1.67 1.83 1.85 1.93 2.03 2.17 2.51 3.00 2.77 2.20 1.93 2.15 1.89 1.67 1.45 1.10 0.96 0.99 1.11 1.34 1.50 1.37 1.26 1.17 1.01
0.17 0.16 0.20 0.28 0.42 0.62 0.83 1.07 1.31 1.52 1.56 1.44 1.48 1.51 1.40 1.34 1.31 1.37 1.52 1.66 1.79 1.81 1.95 2.05 2.17 2.68 3.04 2.72 2.40 2.04 1.70 1.64 1.75 1.54 1.20 1.15 1.19 1.25 1.34 1.31 1.30 1.38 1.26
0.24 0.24 0.32 0.51 0.75 1.00 1.21 1.46 1.73 1.72 1.61 1.51 1.51 1.48 1.43 1.44 1.40 1.40 1.54 1.62 1.64 1.69 1.80 2.13 2.39 2.65 2.86 2.83 2.74 2.54 2.26 1.97 1.64 1.75 1.68 1.45 1.34 1.24 1.25 1.30 1.32 1.38 1.40
0.53 0.66 0.86 1.13 1.32 1.41 1.53 1.68 1.79 1.74 1.75 1.68 1.50 1.40 1.40 1.45 1.51 1.54 1.60 1.61 1.59 1.62 1.73 1.95 2.24 2.45 2.76 2.94 2.83 2.61 2.48 2.35 2.13 1.99 1.77 1.64 1.62 1.42 1.32 1.32 1.26 1.30 1.41

GEFSSE_prec_meanprecacc_204.txt.gz
Total_Precipitation_Accumulation
1.61 1.59 2.23 2.09 1.90 1.80 1.68 1.65 1.51 1.41 1.32 1.15 1.03 0.88 0.81 0.76 0.74 0.74 0.69 0.61 0.59 0.59 0.56 0.64 0.75 0.67 0.66 0.67 0.65 0.70 0.78 0.86 0.81 0.71 0.71 0.75 0.78 0.98 1.14 1.24 1.36 1.34 1.22
1.24 1.55 2.32 2.18 2.00 1.85 1.73 1.69 1.52 1.28 1.09 0.97 0.92 0.84 0.75 0.70 0.72 0.68 0.61 0.56 0.55 0.52 0.53 0.65 0.76 0.76 0.77 0.79 0.82 0.88 0.93 0.91 0.85 0.79 0.91 0.97 0.98 1.10 1.15 1.24 1.52 1.47 1.19
1.14 1.35 1.79 2.25 2.09 1.87 1.74 1.65 1.51 1.30 1.00 0.85 0.79 0.78 0.70 0.62 0.61 0.61 0.61 0.54 0.54 0.54 0.54 0.62 0.72 0.71 0.75 0.81 0.90 0.92 0.96 0.96 0.88 0.99 1.45 1.95 1.56 1.30 1.16 1.24 1.35 1.23 1.09
1.08 1.23 1.42 2.03 1.97 1.86 1.76 1.58 1.57 1.33 0.99 0.86 0.81 0.76 0.67 0.62 0.65 0.71 0.71 0.60 0.57 0.56 0.55 0.57 0.67 0.67 0.68 0.76 0.79 0.81 0.90 0.95 1.01 1.29 1.84 2.30 2.10 1.61 1.40 1.29 1.24 1.18 1.09
1.06 1.23 1.73 2.11 1.82 1.72 1.57 1.49 1.55 1.38 1.14 0.98 0.85 0.75 0.70 0.66 0.67 0.73 0.67 0.65 0.64 0.61 0.64 0.66 0.69 0.69 0.65 0.65 0.68 0.75 0.91 1.14 1.31 1.39 1.73 2.00 2.15 1.84 1.49 1.30 1.24 1.19 1.22
1.07 1.22 1.61 1.82 1.68 1.59 1.49 1.40 1.37 1.37 1.34 1.12 0.93 0.86 0.83 0.78 0.78 0.80 0.79 0.71 0.71 0.73 0.76 0.73 0.69 0.71 0.70 0.69 0.71 0.81 1.01 1.24 1.31 1.41 1.72 1.90 1.92 1.71 1.40 1.28 1.32 1.42 1.47
0.91 1.04 1.32 1.61 1.51 1.43 1.37 1.34 1.26 1.30 1.37 1.23 0.97 0.96 0.97 0.90 0.88 0.90 0.90 0.79 0.80 0.78 0.80 0.82 0.73 0.74 0.72 0.74 0.80 0.92 1.07 1.12 1.11 1.37 1.72 1.98 1.74 1.53 1.41 1.29 1.29 1.53 1.68
0.95 0.93 1.06 1.36 1.42 1.31 1.31 1.38 1.23 1.19 1.27 1.20 1.05 0.99 0.91 0.91 0.94 0.95 0.90 0.85 0.83 0.85 0.85 0.87 0.85 0.78 0.74 0.78 0.88 1.04 1.15 1.06 0.89 1.05 1.27 1.77 2.02 1.84 1.47 1.26 1.28 1.40 1.57
1.29 1.16 1.00 1.03 1.15 1.18 1.23 1.34 1.26 1.18 1.17 1.10 1.13 1.07 1.02 0.99 0.93 0.87 0.86 0.87 0.87 0.88 0.90 0.89 0.83 0.81 0.82 0.85 0.87 0.95 1.06 1.06 0.97 1.00 1.04 1.58 2.01 1.93 1.52 1.26 1.21 1.42 1.54
1.34 1.23 1.06 0.97 0.97 1.03 0.98 1.11 1.29 1.32 1.22 1.10 1.09 1.09 1.08 1.02 0.91 0.84 0.77 0.82 0.88 0.91 0.97 0.96 0.89 0.89 0.90 0.88 0.87 0.93 1.01 0.93 0.80 0.82 1.02 1.46 2.01 2.03 1.76 1.31 1.10 1.13 1.24
1.12 1.06 0.99 0.96 0.97 1.04 1.07 1.06 1.27 1.36 1.25 1.04 0.95 1.00 1.01 0.84 0.83 0.85 0.77 0.93 0.94 1.01 1.06 1.06 1.01 0.98 0.93 0.92 0.96 1.05 0.93 0.73 0.81 0.83 1.07 1.52 1.90 1.97 1.85 1.48 1.12 1.02 1.07
0.87 0.80 0.77 0.77 0.82 0.93 1.02 1.36 1.56 1.36 1.25 0.97 0.96 0.87 0.91 0.97 1.04 0.86 0.83 1.06 1.10 1.15 1.13 1.12 1.15 1.04 0.87 0.74 0.85 0.94 0.80 0.76 0.79 0.79 1.06 1.54 1.82 1.86 1.76 1.55 1.26 1.12 1.13
0.66 0.58 0.55 0.51 0.53 0.61 0.81 1.15 1.44 1.56 1.53 1.44 1.19 0.97 0.97 0.85 0.74 0.69 0.70 0.84 0.94 1.04 1.01 1.03 1.05 0.88 0.79 0.76 0.71 0.69 0.81 0.80 0.87 0.90 1.15 1.53 1.74 1.84 1.76 1.57 1.35 1.24 1.23
0.64 0.58 0.50 0.47 0.43 0.45 0.53 0.71 0.91 1.05 1.14 1.16 1.01 0.91 0.98 0.87 0.77 0.77 0.77 0.77 0.80 0.91 1.04 1.07 1.04 0.90 0.79 0.69 0.65 0.71 0.78 0.79 0.93 1.16 1.34 1.35 1.54 1.78 1.83 1.68 1.49 1.36 1.32
0.73 0.73 0.63 0.51 0.46 0.45 0.49 0.56 0.64 0.79 0.87 0.90 0.93 0.88 0.91 0.92 0.90 0.86 0.79 0.80 0.75 0.84 0.97 1.07 1.02 0.91 0.88 0.81 0.75 0.86 0.93 1.00 1.05 1.12 1.21 1.23 1.41 1.73 1.97 1.95 1.74 1.53 1.43
0.75 0.75 0.73 0.61 0.56 0.51 0.49 0.52 0.55 0.65 0.74 0.78 0.76 0.76 0.86 0.95 0.94 0.91 0.87 0.89 0.87 0.90 1.04 1.04 0.94 0.99 1.01 0.93 0.80 0.81 0.92 0.99 1.06 1.07 1.11 1.21 1.28 1.39 1.82 2.09 2.05 1.87 1.81
0.73 0.69 0.67 0.67 0.66 0.64 0.61 0.59 0.57 0.64 0.74 0.76 0.73 0.68 0.70 0.79 0.84 0.88 0.89 0.90 0.95 1.04 1.11 1.13 0.95 0.99 0.97 0.90 0.84 0.81 0.81 0.85 0.92 0.97 0.93 0.92 1.00 1.15 1.49 1.90 2.20 2.21 2.26
0.59 0.56 0.59 0.60 0.64 0.70 0.71 0.72 0.73 0.73 0.80 0.77 0.76 0.69 0.64 0.69 0.78 0.91 0.92 0.91 0.95 1.08 1.19 1.24 1.14 1.10 1.05 1.01 0.99 0.93 0.84 0.89 0.86 0.90 0.90 0.85 0.98 0.95 1.17 1.39 1.67 1.95 2.25
0.49 0.48 0.51 0.54 0.55 0.66 0.73 0.76 0.84 0.86 0.87 0.85 0.84 0.74 0.71 0.77 0.85 1.02 1.13 1.15 1.15 1.16 1.17 1.12 1.19 1.19 1.17 1.18 1.11 1.06 0.98 0.94 0.97 0.88 0.90 0.94 0.89 0.92 1.03 0.95 1.04 1.27 1.68
0.42 0.42 0.45 0.50 0.52 0.57 0.71 0.82 0.97 1.09 1.05 1.07 1.01 0.89 0.91 1.06 1.19 1.33 1.35 1.43 1.49 1.39 1.37 1.31 1.34 1.27 1.21 1.28 1.17 1.07 0.99 0.91 1.00 1.01 0.99 1.00 0.96 0.90 1.01 0.98 0.98 0.92 1.18
0.33 0.34 0.39 0.42 0.50 0.56 0.62 0.75 0.97 1.24 1.35 1.44 1.40 1.22 1.16 1.28 1.52 1.74 1.71 1.78 1.81 1.71 1.70 1.73 1.92 1.87 1.60 1.36 1.42 1.27 1.07 0.92 1.04 1.08 1.07 1.09 1.10 1.16 1.23 1.15 1.06 1.04 0.93
0.23 0.25 0.30 0.37 0.47 0.54 0.61 0.78 0.94 1.08 1.08 1.26 1.41 1.39 1.30 1.30 1.45 1.59 1.84 1.95 1.89 1.95 2.09 2.10 2.44 2.59 2.13 1.69 1.70 1.86 1.60 1.38 1.11 0.96 1.03 1.05 1.15 1.37 1.38 1.16 1.07 1.03 0.95
0.19 0.20 0.23 0.29 0.40 0.53 0.66 0.88 1.09 1.28 1.36 1.42 1.35 1.43 1.44 1.37 1.41 1.52 1.67 1.83 1.85 1.93 2.04 2.18 2.52 3.02 2.78 2.20 1.94 2.19 1.93 1.70 1.48 1.14 1.00 1.01 1.14 1.39 1.54 1.40 1.28 1.19 1.03
0.20 0.18 0.21 0.29 0.43 0.63 0.84 1.07 1.32 1.52 1.56 1.44 1.48 1.51 1.40 1.34 1.31 1.38 1.52 1.66 1.79 1.82 1.95 2.05 2.18 2.69 3.05 2.73 2.41 2.05 1.72 1.67 1.78 1.56 1.22 1.17 1.21 1.28 1.36 1.34 1.33 1.39 1.27
0.26 0.25 0.32 0.52 0.76 1.00 1.22 1.46 1.73 1.72 1.61 1.52 1.51 1.48 1.43 1.44 1.41 1.40 1.54 1.62 1.64 1.70 1.80 2.13 2.39 2.66 2.87 2.84 2.75 2.54 2.27 1.99 1.67 1.78 1.70 1.46 1.35 1.25 1.26 1.32 1.34 1.39 1.40
0.54 0.67 0.86 1.13 1.32 1.43 1.54 1.69 1.79 1.75 1.75 1.69 1.50 1.41 1.40 1.46 1.52 1.55 1.60 1.62 1.59 1.62 1.73 1.95 2.24 2.45 2.76 2.94 2.84 2.62 2.49 2.36 2.14 2.02 1.78 1.65 1.62 1.43 1.34 1.33 1.27 1.30 1.42

GEFSSE_prec_meanprecacc_210.txt.gz
Total_Precipitation_Accumulation
1.63 1.66 2.36 2.21 1.99 1.88 1.77 1.71 1.56 1.46 1.37 1.20 1.07 0.92 0.85 0.79 0.77 0.76 0.72 0.64 0.62 0.62 0.63 0.73 0.82 0.74 0.72 0.72 0.70 0.73 0.81 0.91 0.85 0.75 0.76 0.80 0.82 1.02 1.17 1.28 1.39 1.37 1.26
1.25 1.59 2.42 2.28 2.08 1.93 1.80 1.74 1.55 1.33 1.14 1.01 0.96 0.89 0.81 0.73 0.74 0.69 0.62 0.59 0.58 0.54 0.56 0.68 0.80 0.80 0.81 0.83 0.86 0.92 0.98 0.96 0.89 0.83 0.94 1.01 1.02 1.14 1.19 1.27 1.56 1.50 1.23
1.15 1.38 1.86 2.33 2.15 1.95 1.83 1.72 1.56 1.36 1.05 0.88 0.84 0.82 0.74 0.65 0.64 0.64 0.63 0.56 0.57 0.56 0.56 0.64 0.75 0.73 0.78 0.85 0.94 0.97 1.02 1.01 0.92 1.02 1.48 1.96 1.58 1.34 1.20 1.28 1.40 1.27 1.15
1.09 1.25 1.47 2.11 2.04 1.93 1.84 1.63 1.62 1.38 1.03 0.90 0.85 0.80 0.69 0.64 0.67 0.74 0.74 0.63 0.61 0.59 0.57 0.58 0.69 0.69 0.72 0.80 0.83 0.86 0.95 1.00 1.05 1.32 1.86 2.31 2.11 1.64 1.45 1.36 1.30 1.23 1.16
1.09 1.25 1.78 2.16 1.88 1.79 1.64 1.53 1.58 1.43 1.18 1.01 0.88 0.78 0.73 0.69 0.70 0.77 0.72 0.69 0.68 0.65 0.66 0.68 0.72 0.73 0.70 0.69 0.72 0.81 0.96 1.17 1.33 1.40 1.74 2.01 2.16 1.88 1.53 1.36 1.30 1.25 1.29
1.09 1.24 1.66 1.88 1.71 1.64 1.56 1.45 1.41 1.41 1.38 1.15 0.96 0.88 0.86 0.81 0.82 0.84 0.83 0.75 0.75 0.76 0.78 0.76 0.74 0.77 0.76 0.73 0.75 0.85 1.05 1.28 1.33 1.41 1.73 1.92 1.95 1.75 1.44 1.33 1.39 1.49 1.56
0.94 1.06 1.36 1.66 1.55 1.48 1.43 1.38 1.30 1.34 1.41 1.27 1.01 0.99 1.00 0.93 0.93 0.94 0.94 0.84 0.84 0.81 0.82 0.86 0.79 0.81 0.80 0.80 0.84 0.97 1.11 1.15 1.12 1.38 1.73 2.00 1.79 1.57 1.45 1.33 1.35 1.59 1.76
0.97 0.95 1.10 1.41 1.46 1.37 1.37 1.43 1.28 1.23 1.30 1.23 1.09 1.03 0.95 0.95 0.99 1.01 0.94 0.89 0.88 0.88 0.89 0.92 0.90 0.86 0.81 0.83 0.95 1.10 1.19 1.09 0.90 1.06 1.28 1.80 2.08 1.89 1.51 1.30 1.35 1.46 1.63
1.31 1.17 1.03 1.06 1.19 1.24 1.31 1.41 1.31 1.22 1.20 1.12 1.15 1.10 1.06 1.03 0.97 0.92 0.91 0.92 0.91 0.91 0.94 0.95 0.89 0.87 0.87 0.89 0.92 1.02 1.11 1.09 0.99 1.00 1.05 1.62 2.09 1.99 1.56 1.30 1.27 1.47 1.59
1.37 1.24 1.06 0.98 1.00 1.07 1.03 1.17 1.35 1.36 1.25 1.13 1.11 1.12 1.11 1.05 0.94 0.89 0.81 0.85 0.91 0.94 1.01 1.02 0.93 0.93 0.95 0.92 0.92 0.99 1.06 0.96 0.82 0.83 1.04 1.50 2.09 2.10 1.83 1.37 1.16 1.19 1.30
1.14 1.08 1.00 0.97 0.98 1.06 1.10 1.09 1.31 1.39 1.28 1.07 0.97 1.03 1.03 0.86 0.85 0.87 0.80 0.98 1.00 1.06 1.11 1.09 1.06 1.04 0.98 0.95 1.01 1.10 0.97 0.76 0.84 0.86 1.10 1.59 1.99 2.05 1.92 1.55 1.20 1.09 1.12
0.88 0.82 0.78 0.78 0.83 0.94 1.02 1.37 1.57 1.37 1.26 0.98 0.98 0.89 0.93 0.99 1.06 0.88 0.87 1.12 1.15 1.21 1.18 1.17 1.19 1.08 0.89 0.75 0.88 0.98 0.82 0.78 0.82 0.82 1.12 1.64 1.93 1.95 1.82 1.60 1.33 1.18 1.19
0.67 0.60 0.56 0.52 0.53 0.61 0.81 1.16 1.44 1.56 1.53 1.45 1.21 1.00 1.00 0.88 0.78 0.71 0.74 0.87 0.97 1.06 1.03 1.05 1.06 0.89 0.80 0.77 0.72 0.70 0.83 0.82 0.89 0.94 1.20 1.62 1.85 1.92 1.80 1.63 1.41 1.29 1.28
0.65 0.59 0.51 0.47 0.43 0.45 0.54 0.71 0.91 1.05 1.14 1.17 1.02 0.93 1.02 0.90 0.79 0.79 0.78 0.79 0.80 0.91 1.04 1.07 1.04 0.91 0.80 0.70 0.66 0.72 0.80 0.81 0.96 1.20 1.39 1.41 1.63 1.88 1.90 1.74 1.56 1.41 1.35
0.75 0.74 0.63 0.51 0.47 0.46 0.49 0.57 0.64 0.79 0.88 0.90 0.93 0.88 0.92 0.94 0.91 0.87 0.80 0.80 0.75 0.84 0.98 1.08 1.03 0.92 0.89 0.82 0.76 0.87 0.95 1.03 1.07 1.14 1.24 1.27 1.47 1.82 2.07 2.06 1.84 1.59 1.48
0.79 0.76 0.74 0.62 0.58 0.52 0.49 0.52 0.56 0.66 0.74 0.78 0.77 0.76 0.86 0.95 0.95 0.91 0.87 0.90 0.87 0.91 1.04 1.05 0.94 1.00 1.03 0.94 0.81 0.83 0.95 1.02 1.09 1.09 1.13 1.23 1.32 1.46 1.92 2.20 2.15 1.95 1.88
0.78 0.72 0.69 0.69 0.68 0.65 0.61 0.59 0.58 0.64 0.74 0.76 0.73 0.68 0.70 0.79 0.85 0.88 0.89 0.90 0.95 1.05 1.11 1.14 0.96 1.00 0.99 0.91 0.86 0.83 0.86 0.89 0.95 1.00 0.96 0.95 1.05 1.22 1.55 1.98 2.31 2.30 2.34
0.63 0.59 0.62 0.63 0.66 0.71 0.72 0.72 0.73 0.73 0.80 0.77 0.76 0.69 0.64 0.69 0.78 0.92 0.93 0.91 0.95 1.09 1.20 1.25 1.15 1.12 1.07 1.03 1.01 0.96 0.89 0.93 0.89 0.93 0.93 0.88 1.03 1.00 1.22 1.46 1.80 2.07 2.35
0.54 0.53 0.54 0.56 0.57 0.67 0.74 0.77 0.84 0.86 0.87 0.85 0.84 0.75 0.71 0.77 0.85 1.02 1.13 1.15 1.15 1.18 1.18 1.14 1.20 1.21 1.19 1.20 1.12 1.08 1.01 0.98 1.01 0.92 0.93 0.98 0.94 0.98 1.10 1.00 1.10 1.34 1.76
0.47 0.47 0.50 0.54 0.55 0.60 0.73 0.84 0.98 1.09 1.05 1.07 1.02 0.89 0.91 1.06 1.20 1.34 1.35 1.43 1.49 1.39 1.37 1.32 1.35 1.29 1.23 1.29 1.19 1.09 1.02 0.94 1.03 1.04 1.03 1.03 0.99 0.96 1.09 1.05 1.03 0.98 1.23
0.38 0.41 0.45 0.48 0.56 0.60 0.64 0.77 0.98 1.24 1.35 1.44 1.40 1.22 1.17 1.29 1.53 1.75 1.72 1.78 1.81 1.72 1.70 1.74 1.93 1.88 1.61 1.37 1.43 1.28 1.09 0.95 1.07 1.11 1.10 1.13 1.14 1.21 1.28 1.24 1.14 1.09 0.97
0.31 0.32 0.36 0.42 0.52 0.58 0.62 0.79 0.95 1.09 1.09 1.26 1.41 1.39 1.31 1.30 1.45 1.59 1.85 1.96 1.90 1.96 2.10 2.11 2.46 2.60 2.14 1.70 1.72 1.89 1.62 1.40 1.14 1.01 1.06 1.08 1.20 1.41 1.43 1.25 1.16 1.09 0.99
0.27 0.25 0.27 0.32 0.42 0.55 0.68 0.89 1.10 1.28 1.36 1.42 1.35 1.43 1.45 1.38 1.42 1.53 1.68 1.84 1.86 1.94 2.05 2.20 2.54 3.03 2.79 2.21 1.96 2.25 1.99 1.73 1.54 1.20 1.04 1.04 1.19 1.43 1.61 1.51 1.36 1.25 1.08
0.25 0.21 0.23 0.31 0.44 0.64 0.86 1.08 1.32 1.53 1.56 1.44 1.48 1.51 1.41 1.35 1.31 1.38 1.52 1.66 1.79 1.82 1.96 2.06 2.19 2.70 3.06 2.74 2.42 2.09 1.77 1.70 1.81 1.61 1.25 1.19 1.24 1.31 1.43 1.42 1.41 1.44 1.32
0.27 0.27 0.33 0.52 0.76 1.01 1.23 1.48 1.74 1.73 1.61 1.52 1.51 1.48 1.43 1.45 1.42 1.41 1.55 1.62 1.64 1.70 1.80 2.13 2.40 2.67 2.88 2.85 2.76 2.57 2.29 2.02 1.69 1.81 1.72 1.48 1.37 1.28 1.31 1.35 1.37 1.42 1.44
0.55 0.68 0.87 1.14 1.33 1.43 1.55 1.70 1.81 1.76 1.76 1.70 1.51 1.41 1.41 1.47 1.53 1.56 1.61 1.62 1.59 1.62 1.73 1.95 2.24 2.46 2.78 2.96 2.85 2.65 2.51 2.37 2.16 2.04 1.80 1.67 1.64 1.45 1.36 1.35 1.28 1.31 1.42